Lapse_Rate
5.3 5.1 5.2 5.0 3.9 4.0 4.2 3.8 3.6 3.5 3.4 3.4 3.4 3.4 3.2 2.9 2.6 3.1 3.3 4.9 4.8 6.0 7.3 7.0 6.1 5.5 5.2 5.3 5.4 5.3 5.2 5.2 5.2 5.3 5.4 5.3 5.3 5.4 5.5 5.6 5.6 5.6 5.6
4.1 4.1 4.3 4.4 4.0 4.0 4.1 4.0 3.7 3.8 3.7 3.6 3.5 3.8 3.8 3.5 3.7 3.7 3.3 4.5 4.3 5.1 6.8 7.0 6.8 6.1 5.7 5.6 5.6 5.6 5.4 5.3 5.3 5.2 5.1 5.2 5.2 5.2 5.4 5.6 5.8 5.7 5.7
3.7 4.0 4.2 3.3 3.8 4.2 4.0 4.1 3.6 3.5 3.8 3.8 3.9 3.9 4.6 4.4 4.8 4.7 4.1 4.1 4.3 4.6 5.8 6.7 6.8 6.7 6.5 6.4 6.3 6.0 5.7 5.5 5.5 5.5 5.3 5.2 5.2 5.2 5.3 5.5 5.6 5.8 5.9
4.4 4.3 4.3 4.2 4.3 4.2 3.9 4.1 4.2 3.9 4.2 4.6 4.2 3.8 4.2 4.3 4.6 4.6 5.3 4.8 4.5 5.1 4.7 5.5 6.3 6.7 6.4 6.6 7.0 7.5 6.9 6.0 5.7 5.6 5.5 5.2 5.2 5.2 5.4 5.6 5.6 5.4 5.4
5.3 4.0 4.4 4.5 4.3 4.1 4.1 4.2 4.0 3.9 4.3 4.3 4.1 4.0 4.0 3.9 4.0 4.6 4.0 4.5 5.3 5.4 5.4 4.7 5.3 5.8 6.1 6.2 6.7 7.1 7.6 6.7 6.1 5.7 5.6 5.4 5.4 5.3 5.4 5.6 5.4 4.9 5.1
5.0 4.7 4.9 4.7 4.3 3.8 3.8 3.5 3.8 3.4 3.4 3.2 3.8 4.6 4.5 4.6 4.3 4.6 4.3 4.1 3.8 5.6 5.4 5.0 4.7 4.7 4.9 5.6 6.1 6.5 6.8 6.9 6.7 6.1 5.8 5.4 5.5 5.4 5.5 5.8 5.6 5.4 5.3
5.8 5.0 5.2 5.3 4.1 4.5 4.2 3.5 3.1 3.5 3.6 3.2 4.1 4.1 3.7 4.0 5.0 4.7 4.3 4.2 4.8 5.6 5.3 5.0 4.8 4.6 5.0 4.4 5.6 5.9 6.3 6.7 6.7 6.6 6.1 5.5 5.6 5.7 5.8 6.0 5.8 5.7 5.5
4.9 4.8 4.8 5.1 5.6 4.6 3.4 3.2 3.5 3.7 3.4 3.8 3.7 3.8 4.6 4.3 4.4 4.1 4.4 4.4 4.4 4.5 4.8 5.4 5.1 5.2 5.0 5.5 5.1 4.8 5.6 6.6 6.8 6.7 6.6 6.0 5.7 5.9 6.1 6.2 6.3 5.9 5.7
3.2 3.2 3.5 4.2 4.7 4.9 4.7 4.2 4.0 3.8 4.9 4.3 4.5 4.2 5.3 4.8 4.1 4.0 4.3 4.2 4.9 4.7 5.1 4.9 4.5 4.8 5.2 5.1 4.9 4.8 4.5 5.2 6.1 6.7 6.8 6.5 6.1 5.8 6.1 6.4 6.4 6.4 6.0
3.1 3.0 3.1 3.0 3.7 5.7 5.6 4.9 5.1 5.3 4.5 5.1 3.9 3.9 4.0 4.6 4.9 4.8 3.9 3.8 4.2 4.1 4.0 3.9 4.6 4.7 4.4 4.9 5.3 5.6 5.9 4.5 5.2 6.3 6.9 6.8 6.6 6.3 6.4 6.6 6.6 6.5 6.2
2.7 2.7 2.3 2.4 1.9 2.1 3.1 4.9 5.1 5.2 4.8 4.0 4.1 4.5 4.1 4.6 4.6 5.7 6.1 5.3 4.4 4.0 4.3 4.5 4.5 5.0 5.1 4.8 4.2 4.4 4.5 4.7 5.9 6.5 7.0 7.5 7.4 7.3 7.0 6.8 6.6 6.4 6.3
2.4 2.5 1.9 1.7 1.7 1.7 2.6 3.2 4.6 3.4 3.9 3.6 4.0 4.7 5.3 5.8 5.6 5.7 5.8 5.8 5.7 5.4 4.3 4.3 5.2 5.0 5.1 5.0 5.3 5.8 4.9 4.2 5.6 6.5 7.3 7.6 7.7 8.1 7.5 7.0 6.9 6.6 6.6
3.2 2.3 2.0 1.2 1.2 1.6 2.3 1.5 1.8 3.6 2.9 2.4 2.6 3.2 3.5 3.2 3.5 4.4 5.6 5.9 6.0 6.6 6.0 6.1 6.0 5.8 5.2 4.7 5.6 6.0 5.7 5.0 5.2 6.0 6.7 7.4 7.4 7.4 7.3 7.2 6.9 6.9 6.9
3.6 4.2 3.3 1.8 1.9 1.8 1.6 1.7 1.5 1.8 2.3 1.7 2.5 2.4 2.7 2.8 3.0 3.1 3.6 3.8 4.7 6.3 6.5 6.4 5.4 4.9 3.9 4.0 4.4 4.3 5.4 5.6 5.0 5.5 6.9 7.3 6.7 6.6 6.7 6.9 7.1 7.0 7.0
4.4 3.9 4.0 4.1 3.0 3.1 2.4 2.4 2.3 4.0 4.1 2.8 2.4 2.8 3.2 3.7 4.0 3.6 3.9 4.0 4.8 6.5 5.9 5.5 4.3 3.1 2.9 3.0 2.7 3.1 3.6 4.6 4.2 4.1 5.0 5.7 5.6 5.3 5.4 5.5 7.4 7.0 6.2
2.4 2.4 2.9 2.3 2.3 3.1 3.4 3.4 3.3 3.2 2.6 2.5 2.7 2.7 2.5 3.0 2.5 2.8 3.7 4.2 4.8 4.9 6.4 5.6 4.3 3.5 3.1 3.5 3.3 3.5 3.9 3.0 3.8 4.3 4.4 4.5 4.2 4.1 4.2 4.0 4.0 4.6 5.4
1.7 2.0 2.3 2.5 2.5 2.7 2.9 2.9 3.2 2.5 2.8 2.9 3.3 3.2 2.9 3.6 2.7 3.0 3.7 3.5 4.8 4.9 4.8 4.2 3.8 3.6 2.6 2.8 3.1 2.8 3.5 3.4 3.4 3.7 3.6 3.9 4.3 4.6 4.4 4.2 4.4 3.6 3.8
2.5 2.0 1.3 1.6 1.9 2.2 2.3 2.2 2.3 2.2 1.8 1.9 2.2 2.4 2.5 3.9 3.4 2.9 3.7 3.2 4.2 5.1 4.7 5.1 3.4 3.0 2.9 4.0 3.3 2.6 3.4 3.5 3.4 3.5 3.0 2.7 2.7 3.7 3.7 3.8 4.0 3.7 3.8
1.5 1.9 3.0 2.7 2.4 2.1 2.2 1.8 1.7 1.8 1.9 2.0 2.8 3.4 3.9 4.2 3.9 3.8 4.7 4.4 4.4 5.6 5.4 4.7 4.6 4.5 4.6 4.0 3.1 3.5 2.0 2.1 2.1 2.5 3.4 3.2 3.0 2.6 3.0 3.2 3.1 3.4 3.3
1.1 1.3 1.6 1.9 2.3 3.5 4.5 3.9 3.3 2.9 2.7 3.3 3.6 4.3 4.4 4.5 4.8 5.1 5.6 5.2 5.4 4.8 5.0 5.0 5.1 4.6 4.8 4.4 3.4 3.1 1.4 1.3 1.0 2.8 3.5 3.5 3.1 3.0 2.9 2.8 3.3 2.8 2.5
1.3 1.1 1.2 1.5 1.7 3.5 5.2 4.6 4.1 3.3 3.2 3.3 3.7 4.5 5.2 5.9 7.2 8.0 7.1 6.4 6.1 5.9 5.6 5.6 5.4 5.3 5.1 4.5 4.3 3.6 3.5 2.8 1.1 3.5 2.2 2.9 1.7 2.4 2.9 3.1 3.0 2.2 2.0
0.8 1.0 1.2 1.4 1.4 3.3 4.9 5.6 5.0 3.4 3.4 3.3 3.4 3.9 4.7 6.3 6.7 8.3 8.5 8.1 7.5 6.8 6.0 5.6 5.4 5.8 5.4 5.3 5.4 5.4 4.9 3.7 4.1 2.0 1.5 0.5 2.2 1.3 2.1 3.4 3.5 2.9 3.0
0.7 0.8 1.0 1.4 1.8 2.4 6.4 6.8 7.2 4.7 4.5 4.1 4.1 4.0 4.5 6.3 5.8 5.7 7.5 8.4 7.8 8.2 8.3 7.2 6.6 6.1 5.8 6.1 6.4 5.9 5.5 5.1 4.9 3.6 3.9 3.4 1.8 1.6 3.2 3.6 4.0 3.8 3.2
1.6 1.6 1.8 2.0 2.0 3.5 6.4 7.2 8.3 5.5 5.1 4.7 4.8 4.6 4.7 4.9 5.1 6.8 6.5 6.0 6.1 5.9 6.1 6.7 6.3 6.0 6.1 6.3 6.1 6.8 6.3 6.4 5.9 5.0 5.2 6.4 3.7 3.3 2.7 2.5 3.0 3.5 3.3
1.4 1.8 2.3 2.3 2.3 2.8 6.3 7.8 7.4 4.9 4.9 4.7 5.5 5.8 6.0 6.0 7.4 9.0 7.3 6.8 6.1 5.6 7.1 8.0 8.1 8.3 8.3 8.2 7.6 6.8 5.6 6.0 6.1 7.1 4.6 6.8 6.0 5.8 4.5 2.8 2.0 2.8 3.5
1.8 1.6 2.0 2.1 4.1 2.9 5.5 7.3 6.7 4.9 4.4 4.8 5.3 6.3 7.9 8.1 9.2 9.3 7.8 6.4 5.8 5.7 5.3 5.3 5.3 5.4 5.8 5.2 7.0 5.9 5.6 6.6 7.2 6.9 5.5 5.3 6.0 5.9 6.8 4.8 3.1 3.1 2.8
Wind_Speed
6 6 8 10 10 11 11 7 7 7 8 11 12 11 10 12 14 13 13 22 26 26 24 23 22 21 20 20 19 18 18 17 16 15 14 14 13 12 12 11 10 9 8
8 7 8 6 7 12 12 10 7 7 8 8 9 11 11 13 15 15 13 17 27 26 24 24 24 23 22 21 21 20 20 19 19 18 17 17 16 16 15 14 13 12 11
10 7 7 6 5 9 10 9 6 6 7 6 9 8 8 12 12 13 12 14 16 27 27 25 25 24 24 23 23 23 22 21 21 21 21 20 19 18 18 17 16 15 14
16 8 7 7 10 9 6 6 7 7 7 8 8 8 7 4 5 7 9 11 12 16 23 24 25 25 25 25 25 24 24 25 25 24 23 22 22 21 21 20 19 18 17
15 7 6 8 12 7 7 6 6 6 7 8 8 5 5 5 4 4 4 5 8 14 14 20 27 26 25 26 27 27 26 26 26 26 25 24 24 23 23 23 22 21 20
11 6 6 8 7 6 6 4 6 5 4 5 4 4 4 5 6 6 6 9 11 14 14 14 15 20 25 25 27 28 27 26 25 27 27 26 25 25 24 24 23 23 22
13 7 7 8 7 9 8 7 4 5 5 4 3 3 4 7 9 9 8 8 11 15 14 13 14 13 16 26 27 28 28 29 27 26 27 27 26 26 26 25 24 23 24
12 7 8 9 10 8 5 6 6 3 4 5 4 2 2 2 6 8 8 8 11 8 10 14 15 15 16 16 21 27 28 30 29 29 28 27 27 27 27 26 25 23 23
14 9 6 5 7 7 8 8 7 7 6 4 6 4 2 4 1 3 9 7 10 9 8 7 9 12 14 15 17 20 26 30 30 31 30 29 28 28 29 28 27 25 24
15 18 9 5 6 5 9 9 8 9 4 6 2 4 0 1 2 3 2 3 5 6 6 3 5 9 13 14 17 21 24 27 30 32 32 30 30 30 31 29 28 28 27
14 17 14 10 10 6 9 10 8 11 7 3 3 2 4 3 3 5 4 3 2 3 3 4 7 8 11 12 13 18 25 26 27 30 33 32 31 32 32 30 30 31 29
9 11 13 11 11 9 9 9 7 3 2 6 3 3 1 1 2 3 6 6 6 3 5 6 7 6 10 12 15 21 24 26 29 31 33 33 32 32 33 31 33 32 30
7 9 10 10 10 11 12 10 15 11 6 7 7 4 4 5 3 3 2 2 2 2 3 5 7 7 7 10 12 19 22 24 26 30 34 34 34 33 32 32 33 33 32
5 6 7 8 11 11 11 12 10 7 10 8 7 6 5 4 4 4 3 2 2 2 3 5 1 6 8 12 15 23 16 23 25 27 31 30 30 28 29 29 31 35 35
5 6 7 5 8 9 10 8 6 5 4 7 7 6 5 4 4 5 3 3 1 1 2 2 3 7 7 12 15 17 17 21 23 23 27 29 26 23 22 24 31 31 32
5 6 7 9 10 8 8 7 5 6 7 5 4 4 5 4 6 5 3 2 1 1 3 4 4 7 10 9 15 15 17 21 23 25 25 25 20 15 14 14 15 21 26
6 6 6 6 7 7 7 6 5 7 7 6 6 5 5 6 5 3 2 3 3 2 2 2 3 7 10 12 11 13 15 12 16 21 18 20 21 22 22 21 21 17 16
6 8 8 7 7 6 5 5 6 6 6 6 6 6 7 5 4 3 2 3 2 2 2 7 5 4 9 11 10 12 9 12 10 17 22 19 17 20 20 22 22 21 19
6 6 5 7 8 7 6 5 6 6 6 6 6 5 4 4 4 3 2 3 2 3 2 3 5 4 6 6 9 8 9 9 11 19 21 17 17 16 14 15 19 19 20
5 6 6 5 5 5 5 6 5 5 5 6 6 5 5 5 5 5 4 4 3 3 4 4 5 4 4 6 6 8 10 8 9 11 9 13 16 17 14 14 13 14 13
5 5 5 5 5 4 4 3 3 3 4 5 5 6 5 8 10 6 2 1 3 3 3 4 4 4 5 7 7 7 8 9 10 3 7 7 8 9 9 12 12 13 12
5 5 5 5 5 4 9 10 7 4 5 5 4 5 6 8 8 11 4 2 4 3 3 3 3 6 7 6 5 6 6 8 5 3 11 12 8 9 8 7 14 15 15
4 5 6 5 5 5 9 10 8 1 2 4 4 4 4 4 7 5 7 5 3 5 7 4 5 5 5 6 6 8 7 6 8 10 9 9 8 9 7 8 16 18 18
4 4 5 6 5 5 12 11 10 2 3 4 4 5 4 6 6 7 5 5 5 5 5 4 5 7 6 6 5 5 7 8 7 7 6 6 5 9 9 7 17 19 19
3 3 4 5 5 5 11 11 9 5 5 6 5 5 5 6 13 15 6 5 6 5 7 12 12 13 13 14 11 5 5 7 7 7 6 4 4 7 7 7 6 16 18
3 3 4 3 6 4 10 11 10 3 5 5 5 5 10 11 17 17 8 6 6 7 5 6 5 6 8 7 11 4 3 5 8 5 3 7 8 5 5 3 4 4 5
Wind_Direction
257 245 248 242 225 218 214 210 209 201 203 207 208 209 215 220 227 231 227 230 218 219 212 210 210 213 214 218 219 219 219 219 221 224 227 228 231 232 233 233 233 234 237
259 260 257 247 237 209 212 205 209 205 210 207 213 214 222 222 223 228 226 228 220 216 219 211 212 215 219 222 225 226 225 226 225 226 227 230 231 232 235 236 236 238 238
262 253 261 251 236 235 214 214 210 213 214 205 221 221 226 230 232 232 217 218 220 215 218 217 216 216 219 225 229 230 228 229 230 230 230 232 232 233 234 235 234 234 238
271 254 251 259 240 237 216 209 214 217 216 216 223 226 229 233 243 233 231 224 216 216 224 221 220 220 220 225 232 236 229 225 226 229 230 231 232 232 234 235 233 232 233
275 247 250 253 261 236 223 213 218 212 212 221 224 220 217 219 242 267 281 289 258 220 224 222 221 222 224 222 230 237 240 235 228 227 228 231 233 234 236 238 234 229 228
277 257 263 259 253 246 236 213 215 211 202 198 198 216 213 223 213 236 259 267 257 259 233 222 226 233 231 228 229 233 238 243 240 236 230 231 234 236 237 239 236 235 231
307 293 278 268 252 235 229 217 210 207 222 189 149 235 212 206 215 214 212 224 236 238 230 221 222 222 232 233 234 232 236 239 240 240 238 232 232 235 236 236 234 236 234
300 286 280 272 261 246 237 220 207 216 231 192 195 154 262 253 219 224 215 206 228 235 245 231 216 217 222 225 228 231 234 239 239 241 240 237 234 233 235 236 233 233 234
358 344 315 295 254 236 239 227 226 204 208 208 216 158 186 224 182 195 220 201 221 226 232 232 232 232 225 224 225 230 231 235 235 239 239 238 235 234 234 233 235 235 231
359 346 331 347 318 257 246 225 221 230 213 216 217 242 326 154 173 309 293 254 230 227 231 238 257 239 225 227 229 229 232 234 239 241 242 239 237 235 238 235 233 232 229
1 352 352 19 24 37 23 280 210 219 216 209 196 162 218 200 202 233 251 257 287 254 260 228 235 252 243 231 232 237 236 234 238 242 243 241 238 236 239 238 235 233 228
359 351 357 14 18 13 36 27 5 36 97 82 63 62 44 189 190 221 242 243 240 225 222 235 247 243 246 240 236 238 237 234 240 244 248 247 244 243 237 234 236 234 230
356 352 357 17 25 17 20 38 36 343 49 52 51 70 66 55 24 347 322 321 301 251 245 228 235 237 242 244 249 251 254 249 242 245 249 253 254 248 239 232 235 236 232
319 333 352 9 31 26 27 34 49 358 8 42 43 47 69 62 55 34 36 11 326 288 255 263 237 35 25 359 343 327 285 263 253 251 252 250 250 247 242 235 235 238 236
354 354 8 8 33 29 31 37 53 16 9 37 34 28 50 48 50 62 57 42 3 326 335 359 354 23 0 344 339 333 328 304 276 255 249 250 247 242 241 242 241 236 234
344 356 6 18 33 29 33 34 30 359 25 20 24 34 41 27 66 39 359 10 37 73 286 4 342 339 338 332 326 329 319 323 294 271 255 246 234 236 243 247 251 256 240
356 355 359 17 28 27 34 42 30 23 29 25 17 29 30 35 57 30 358 51 334 322 268 293 305 324 342 325 326 331 317 334 342 333 283 250 244 245 243 249 259 249 253
359 357 3 11 15 21 33 38 37 25 23 19 8 22 32 33 30 7 331 53 316 340 326 301 310 342 324 319 319 325 326 332 337 337 339 345 303 259 245 240 236 226 224
3 6 14 2 357 359 17 18 32 22 11 13 5 7 39 18 360 341 319 358 314 327 303 307 314 319 312 313 327 334 335 340 341 338 325 331 334 332 289 240 217 210 214
18 9 9 10 4 353 355 2 19 16 6 360 4 0 5 360 345 325 18 21 10 358 338 328 319 313 322 340 329 337 335 341 329 324 335 341 350 330 321 313 278 224 205
1 2 10 5 1 351 345 1 48 35 13 356 354 351 342 337 331 339 68 4 17 346 314 322 334 332 320 340 345 330 324 326 323 274 352 342 341 330 331 325 301 303 279
352 357 358 356 352 348 349 359 11 22 7 5 346 333 331 331 331 321 288 349 16 339 331 330 315 318 318 322 324 324 325 333 333 341 342 316 322 314 317 307 298 299 278
336 340 339 344 338 329 344 349 345 142 340 329 328 327 327 335 340 325 288 270 293 311 308 299 292 287 295 307 308 315 316 309 298 303 311 304 313 297 303 297 298 290 285
331 325 326 334 334 329 349 348 345 332 313 312 310 308 304 306 314 316 265 242 258 263 266 266 251 269 262 277 270 296 300 298 298 296 295 293 313 300 296 297 296 289 285
309 297 306 326 336 332 346 349 1 355 328 311 299 304 306 307 316 324 316 269 270 268 277 285 291 292 299 311 313 321 312 321 311 320 297 286 310 323 302 281 290 307 299
287 306 314 325 326 340 346 347 349 333 329 318 316 330 327 320 317 313 304 292 286 280 282 284 286 293 300 292 311 292 276 303 311 314 312 350 326 338 316 308 327 322 327